• In Kazakhstan
  • List of Countries
  • For 7 days
  • Water Temperature
  • Weather Map
  • News
  • Weather Widgets
  • user-avatar
    Login

    Hourly Weather Ioannina

    Today, 23 September, Monday

    Time Temperature Precipitation Wind Pressure Humidity
    00:00 +13°C° 0 mm 0 mps 689 mmHg 90%
    01:00 +14°C° 0 mm 1 mps 689 mmHg 90%
    02:00 +14°C° 0 mm 1 mps 689 mmHg 90%
    03:00 +13°C° 0 mm 0 mps 688 mmHg 90%
    04:00 +13°C° 0 mm 0 mps 688 mmHg 90%
    05:00 +14°C° 0 mm 0 mps 688 mmHg 85%
    06:00 +15°C° 0 mm 0 mps 688 mmHg 79%
    07:00 +16°C° 0 mm 0 mps 689 mmHg 74%
    08:00 +20°C° 0 mm 1 mps 689 mmHg 62%
    09:00 +23°C° 0 mm 1 mps 689 mmHg 51%
    10:00 +25°C° 0 mm 2 mps 689 mmHg 39%
    11:00 +25°C° 0 mm 2 mps 689 mmHg 40%
    12:00 +26°C° 0 mm 3 mps 689 mmHg 42%
    13:00 +26°C° 0 mm 3 mps 689 mmHg 44%
    14:00 +25°C° 0.1 mm 3 mps 688 mmHg 51%
    15:00 +24°C° 0.1 mm 3 mps 688 mmHg 58%
    16:00 +22°C° 0.1 mm 3 mps 687 mmHg 65%
    17:00 +21°C° 0.1 mm 2 mps 687 mmHg 73%
    18:00 +19°C° 0.1 mm 2 mps 687 mmHg 81%
    19:00 +19°C° 0.1 mm 1 mps 687 mmHg 89%
    20:00 +18°C° 0 mm 1 mps 687 mmHg 91%
    21:00 +18°C° 0 mm 1 mps 687 mmHg 93%
    22:00 +18°C° 0 mm 1 mps 686 mmHg 95%
    23:00 +18°C° 0.1 mm 1 mps 686 mmHg 95%

    Tomorrow, 24 September, Tuesday

    Time Temperature Precipitation Wind Pressure Humidity
    00:00 +18°C° 0.1 mm 1 mps 686 mmHg 94%
    01:00 +18°C° 0.1 mm 1 mps 686 mmHg 94%
    02:00 +18°C° 0.3 mm 1 mps 685 mmHg 94%
    03:00 +18°C° 0.3 mm 1 mps 685 mmHg 95%
    04:00 +18°C° 0.3 mm 1 mps 685 mmHg 95%
    05:00 +18°C° 0.4 mm 1 mps 684 mmHg 95%
    06:00 +18°C° 0.4 mm 1 mps 684 mmHg 94%
    07:00 +18°C° 0.4 mm 1 mps 684 mmHg 94%
    08:00 +18°C° 0.6 mm 2 mps 684 mmHg 89%
    09:00 +19°C° 0.6 mm 2 mps 684 mmHg 85%
    10:00 +20°C° 0.6 mm 2 mps 684 mmHg 81%
    11:00 +20°C° 1.5 mm 2 mps 684 mmHg 77%
    12:00 +21°C° 1.5 mm 2 mps 684 mmHg 74%
    13:00 +21°C° 1.5 mm 2 mps 684 mmHg 71%
    14:00 +21°C° 0.8 mm 2 mps 684 mmHg 73%
    15:00 +21°C° 0.8 mm 1 mps 683 mmHg 74%
    16:00 +21°C° 0.8 mm 1 mps 683 mmHg 76%
    17:00 +19°C° 0.3 mm 1 mps 683 mmHg 80%
    18:00 +18°C° 0.3 mm 1 mps 683 mmHg 84%
    19:00 +16°C° 0.3 mm 1 mps 683 mmHg 88%
    20:00 +15°C° 0 mm 1 mps 683 mmHg 88%
    21:00 +15°C° 0 mm 1 mps 683 mmHg 87%
    22:00 +14°C° 0 mm 1 mps 683 mmHg 87%
    23:00 +14°C° 0 mm 1 mps 683 mmHg 86%

    Day after tomorrow, 25 September, Wednesday

    Time Temperature Precipitation Wind Pressure Humidity
    00:00 +14°C° 0 mm 1 mps 683 mmHg 85%
    01:00 +13°C° 0 mm 1 mps 683 mmHg 85%
    02:00 +13°C° 0 mm 1 mps 683 mmHg 84%
    03:00 +13°C° 0 mm 1 mps 683 mmHg 84%
    04:00 +13°C° 0 mm 1 mps 683 mmHg 83%
    05:00 +14°C° 0 mm 1 mps 683 mmHg 80%
    06:00 +14°C° 0 mm 1 mps 684 mmHg 78%
    07:00 +15°C° 0 mm 1 mps 684 mmHg 75%
    08:00 +19°C° 0 mm 1 mps 685 mmHg 66%
    09:00 +21°C° 0 mm 1 mps 685 mmHg 57%
    10:00 +23°C° 0 mm 1 mps 686 mmHg 49%
    11:00 +24°C° 0 mm 1 mps 686 mmHg 46%
    12:00 +24°C° 0 mm 2 mps 686 mmHg 43%
    13:00 +25°C° 0 mm 2 mps 686 mmHg 40%
    14:00 +24°C° 0 mm 2 mps 686 mmHg 42%
    15:00 +24°C° 0 mm 2 mps 685 mmHg 44%
    16:00 +23°C° 0 mm 2 mps 685 mmHg 46%
    17:00 +20°C° 0 mm 2 mps 685 mmHg 56%
    18:00 +19°C° 0 mm 1 mps 685 mmHg 65%
    19:00 +15°C° 0 mm 0 mps 685 mmHg 75%
    20:00 +14°C° 0 mm 0 mps 685 mmHg 78%
    21:00 +14°C° 0 mm 0 mps 685 mmHg 81%
    22:00 +14°C° 0 mm 0 mps 685 mmHg 83%
    23:00 +13°C° 0 mm 0 mps 685 mmHg 85%

    26 September, Thursday

    Time Temperature Precipitation Wind Pressure Humidity
    00:00 +13°C° 0 mm 0 mps 685 mmHg 86%
    01:00 +13°C° 0 mm 0 mps 685 mmHg 87%
    02:00 +13°C° 0 mm 0 mps 685 mmHg 86%
    03:00 +12°C° 0 mm 0 mps 685 mmHg 86%
    04:00 +12°C° 0 mm 0 mps 685 mmHg 86%
    05:00 +13°C° 0 mm 0 mps 685 mmHg 80%
    06:00 +14°C° 0 mm 0 mps 685 mmHg 75%
    07:00 +16°C° 0 mm 0 mps 686 mmHg 70%
    08:00 +20°C° 0 mm 1 mps 686 mmHg 63%
    09:00 +22°C° 0 mm 1 mps 687 mmHg 55%
    10:00 +24°C° 0 mm 1 mps 687 mmHg 48%
    11:00 +24°C° 0 mm 2 mps 687 mmHg 47%
    12:00 +25°C° 0 mm 2 mps 687 mmHg 45%
    13:00 +25°C° 0 mm 3 mps 687 mmHg 44%
    14:00 +24°C° 0 mm 2 mps 687 mmHg 48%
    15:00 +24°C° 0 mm 2 mps 686 mmHg 53%
    16:00 +23°C° 0 mm 2 mps 686 mmHg 57%
    17:00 +20°C° 0 mm 2 mps 686 mmHg 66%
    18:00 +19°C° 0 mm 1 mps 686 mmHg 75%
    19:00 +16°C° 0 mm 0 mps 685 mmHg 85%
    20:00 +15°C° 0 mm 0 mps 686 mmHg 86%
    21:00 +15°C° 0 mm 0 mps 686 mmHg 87%
    22:00 +15°C° 0 mm 0 mps 686 mmHg 89%
    23:00 +14°C° 0 mm 0 mps 686 mmHg 89%

    27 September, Friday

    Time Temperature Precipitation Wind Pressure Humidity
    00:00 +14°C° 0 mm 0 mps 686 mmHg 88%
    01:00 +14°C° 0 mm 0 mps 686 mmHg 88%
    02:00 +15°C° 0 mm 1 mps 686 mmHg 88%
    03:00 +15°C° 0 mm 1 mps 686 mmHg 87%
    04:00 +14°C° 0 mm 1 mps 686 mmHg 87%
    05:00 +15°C° 0 mm 1 mps 686 mmHg 81%
    06:00 +16°C° 0 mm 1 mps 686 mmHg 76%
    07:00 +18°C° 0 mm 1 mps 687 mmHg 71%
    08:00 +20°C° 0 mm 1 mps 687 mmHg 62%
    09:00 +23°C° 0 mm 1 mps 688 mmHg 53%
    10:00 +25°C° 0 mm 1 mps 689 mmHg 44%
    11:00 +26°C° 0 mm 1 mps 689 mmHg 41%
    12:00 +26°C° 0 mm 1 mps 689 mmHg 39%
    13:00 +27°C° 0 mm 1 mps 688 mmHg 36%
    14:00 +26°C° 0 mm 1 mps 688 mmHg 39%
    15:00 +25°C° 0 mm 1 mps 688 mmHg 43%
    16:00 +25°C° 0 mm 1 mps 688 mmHg 46%
    17:00 +23°C° 0 mm 1 mps 688 mmHg 54%
    18:00 +21°C° 0 mm 1 mps 688 mmHg 63%
    19:00 +19°C° 0 mm 1 mps 687 mmHg 71%
    20:00 +18°C° 0 mm 1 mps 688 mmHg 72%
    21:00 +18°C° 0 mm 1 mps 688 mmHg 73%
    22:00 +16°C° 0 mm 1 mps 688 mmHg 73%
    23:00 +16°C° 0 mm 1 mps 688 mmHg 74%

    28 September, Saturday

    Time Temperature Precipitation Wind Pressure Humidity
    00:00 +16°C° 0 mm 1 mps 688 mmHg 74%
    01:00 +15°C° 0 mm 1 mps 688 mmHg 74%
    02:00 +15°C° 0 mm 1 mps 688 mmHg 75%
    03:00 +15°C° 0 mm 1 mps 688 mmHg 75%
    04:00 +15°C° 0 mm 1 mps 688 mmHg 75%
    05:00 +15°C° 0 mm 1 mps 689 mmHg 72%
    06:00 +16°C° 0 mm 1 mps 689 mmHg 68%
    07:00 +18°C° 0 mm 1 mps 689 mmHg 64%
    08:00 +21°C° 0 mm 1 mps 690 mmHg 57%
    09:00 +23°C° 0 mm 1 mps 691 mmHg 50%
    10:00 +26°C° 0 mm 1 mps 692 mmHg 43%
    11:00 +26°C° 0 mm 1 mps 691 mmHg 41%
    12:00 +26°C° 0 mm 1 mps 691 mmHg 40%
    13:00 +26°C° 0 mm 2 mps 691 mmHg 39%
    14:00 +26°C° 0 mm 2 mps 690 mmHg 43%
    15:00 +25°C° 0 mm 2 mps 690 mmHg 47%
    16:00 +24°C° 0 mm 2 mps 690 mmHg 51%
    17:00 +22°C° 0 mm 1 mps 690 mmHg 58%
    18:00 +21°C° 0 mm 1 mps 689 mmHg 66%
    19:00 +17°C° 0 mm 0 mps 689 mmHg 74%
    20:00 +16°C° 0 mm 0 mps 689 mmHg 75%
    21:00 +16°C° 0 mm 0 mps 689 mmHg 77%
    22:00 +16°C° 0 mm 0 mps 689 mmHg 79%
    23:00 +15°C° 0 mm 0 mps 689 mmHg 79%
    Show more